Location: Bidart
(43.4376°N, 1.5913°W)
Time: 05:24:07
(UTC+00:00)

ISS - Pass Details

Date: 19 May 2025
Orbit: 415 x 417 km, 51.6° (Epoch: 13 June)

Event Time Altitude Azimuth Distance (km) Brightness Sun altitude
Rises 21:46:39 0° 304° (NW) 2,362 1.3 -19.3°
Reaches altitude 10° 21:48:52 10° 313° (NW) 1,496 0.2 -19.5°
Maximum altitude 21:51:59 35° 22° (NNE) 690 -2.4 -19.8°
Enters shadow 21:52:55 29° 58° (ENE) 793 -2.4 -19.9°
